User: anonymous   Login
Location: Follega
(52.8850°N, 5.7362°E)
Time: 22:12:07
(UTC+00:00)
Language:

FENGYUN 1C DEB - Orbit

View from above orbital plane
View from above orbital plane
View from above satellite
View from above satellite

Ground track
Ground track

The orbit data is extracted from the following two-line orbital elements,

1 35153U 99025DMH 21335.51791810  .00000481  00000-0  83438-4 0  9991
2 35153  98.8892  75.3805 0202606 310.0294  48.3279 14.61474688756387
Epoch (UTC): 01 December 2021 12:25:48
Eccentricity: 0.0202606
inclination: 98.8892°
perigee height: 545 km
apogee height: 831 km
right ascension of ascending node: 75.3805°
argument of perigee: 310.0294°
revolutions per day: 14.61474688
mean anomaly at epoch: 48.3279°
orbit number at epoch: 75638

The dashed part of the orbit path shows where the satellite is in the earth's shadow,  

DLR